Radiation Dose at Monitoring Post of Fukushima Daini Nuclear Power Station
Date,Time,MP-1(microSv/h),MP-2(microSv/h),MP-3(microSv/h),MP-4(microSv/h),MP-5(microSv/h),MP-6(microSv/h),MP-7(microSv/h),Wind Direction,Wind Velocity(m/s),Rain
2012/12/10,00:00,1.1,0.7,1.1,1.0,1.0,0.5,0.4,west,6.2,No
2012/12/10,00:10,1.1,0.7,1.1,1.0,1.0,0.5,0.4,west,6.4,No
2012/12/10,00:20,1.1,0.7,1.1,1.0,1.0,0.5,0.4,west,6.5,No
2012/12/10,00:30,1.1,0.7,1.1,1.0,1.0,0.5,0.4,west,5.9,No
2012/12/10,00:40,1.1,0.7,1.1,1.0,1.0,0.5,0.4,west,7.3,No
2012/12/10,00:50,1.1,0.7,1.1,1.0,1.0,0.5,0.4,west,6.5,No
2012/12/10,01:00,1.1,0.7,1.1,1.0,1.0,0.5,0.4,west,7.3,No
2012/12/10,01:10,1.1,0.7,1.1,1.0,1.0,0.5,0.4,west,8.5,No
2012/12/10,01:20,1.1,0.7,1.1,1.0,1.0,0.5,0.4,west,9.4,No
2012/12/10,01:30,1.1,0.7,1.1,1.0,1.0,0.5,0.4,west,8.3,No
2012/12/10,01:40,1.1,0.7,1.1,1.0,1.0,0.5,0.4,west,10.1,No
2012/12/10,01:50,1.1,0.7,1.1,1.0,1.0,0.5,0.4,west,10.0,No
2012/12/10,02:00,1.1,0.7,1.1,1.0,1.0,0.5,0.4,west,9.9,No
2012/12/10,02:10,1.1,0.7,1.1,1.0,1.0,0.5,0.4,west-southwest,12.5,No
2012/12/10,02:20,1.1,0.7,1.1,1.0,1.0,0.5,0.4,west,10.9,No
2012/12/10,02:30,1.1,0.7,1.1,1.0,1.0,0.5,0.4,west,10.4,No
2012/12/10,02:40,1.1,0.7,1.1,1.0,1.0,0.5,0.4,west-southwest,12.8,No
2012/12/10,02:50,1.1,0.7,1.1,1.0,1.0,0.5,0.4,west-southwest,13.0,No
2012/12/10,03:00,1.1,0.7,1.1,1.0,1.0,0.5,0.4,west,11.2,No
2012/12/10,03:10,1.1,0.7,1.1,1.0,1.0,0.5,0.4,west-southwest,12.2,No
2012/12/10,03:20,1.1,0.7,1.1,1.0,1.0,0.5,0.4,west-southwest,12.0,No
2012/12/10,03:30,1.1,0.7,1.1,1.0,1.0,0.5,0.4,west-southwest,11.7,No
2012/12/10,03:40,1.1,0.7,1.1,1.0,1.0,0.5,0.4,west-southwest,12.3,No
2012/12/10,03:50,1.1,0.7,1.1,1.0,1.0,0.5,0.4,southwest,12.6,No
2012/12/10,04:00,1.1,0.7,1.1,1.0,1.0,0.5,0.4,west-southwest,11.8,No
2012/12/10,04:10,1.1,0.7,1.1,1.0,1.0,0.5,0.4,west-southwest,12.3,No
2012/12/10,04:20,1.1,0.7,1.1,1.0,1.0,0.5,0.4,west-southwest,12.9,No
2012/12/10,04:30,1.1,0.7,1.1,1.0,1.0,0.5,0.4,west-southwest,13.1,No
2012/12/10,04:40,1.1,0.7,1.1,1.0,1.0,0.5,0.4,west-southwest,13.3,No
2012/12/10,04:50,1.1,0.7,1.1,1.0,1.0,0.5,0.4,west-southwest,12.8,No
2012/12/10,05:00,1.1,0.7,1.1,1.0,1.0,0.5,0.4,west-southwest,11.2,No
2012/12/10,05:10,1.1,0.7,1.1,1.0,1.0,0.5,0.4,west-southwest,11.1,No
2012/12/10,05:20,1.1,0.7,1.1,1.0,1.0,0.5,0.4,west-southwest,12.2,No
2012/12/10,05:30,1.1,0.7,1.1,1.0,1.0,0.5,0.4,west-southwest,10.4,No
2012/12/10,05:40,1.1,0.7,1.1,1.0,1.0,0.5,0.4,west-southwest,10.9,No
2012/12/10,05:50,1.1,0.7,1.1,1.0,1.0,0.5,0.4,west-southwest,8.3,No
2012/12/10,06:00,1.1,0.7,1.1,1.0,1.0,0.5,0.4,west-southwest,9.5,No
2012/12/10,06:10,1.1,0.7,1.1,1.0,1.0,0.5,0.4,west-southwest,10.8,No
2012/12/10,06:20,1.1,0.7,1.1,1.0,1.0,0.5,0.4,west-southwest,9.3,No
2012/12/10,06:30,1.1,0.7,1.1,1.0,1.0,0.5,0.4,west-southwest,8.1,No
2012/12/10,06:40,1.1,0.7,1.1,1.0,1.0,0.5,0.4,west-southwest,4.4,No
2012/12/10,06:50,1.1,0.7,1.1,1.0,1.0,0.5,0.4,west,2.9,No
2012/12/10,07:00,1.1,0.7,1.1,1.0,1.0,0.5,0.4,north-northwest,2.2,No
2012/12/10,07:10,1.1,0.7,1.1,1.0,1.0,0.5,0.4,west-southwest,0.9,No
2012/12/10,07:20,1.1,0.7,1.1,1.0,1.0,0.5,0.4,northwest,1.2,No
2012/12/10,07:30,1.1,0.7,1.1,1.0,1.0,0.5,0.4,west,2.4,No
2012/12/10,07:40,1.1,0.7,1.1,1.0,1.0,0.5,0.4,west-southwest,6.1,No
2012/12/10,07:50,1.1,0.7,1.1,1.0,1.0,0.5,0.4,west,7.0,No
2012/12/10,08:00,1.1,0.7,1.1,1.0,1.0,0.5,0.4,west-northwest,5.2,No
2012/12/10,08:10,1.1,0.7,1.1,1.0,1.0,0.5,0.4,west-northwest,4.6,No
2012/12/10,08:20,1.1,0.7,1.1,1.0,1.0,0.5,0.4,west-northwest,2.8,No
2012/12/10,08:30,1.1,0.7,1.1,1.0,1.0,0.5,0.4,northwest,5.8,No
2012/12/10,08:40,1.1,0.7,1.1,1.0,1.0,0.5,0.4,northwest,6.2,No
2012/12/10,08:50,1.1,0.7,1.1,1.0,1.0,0.5,0.4,northwest,3.9,No
2012/12/10,09:00,1.1,0.7,1.1,1.0,1.0,0.5,0.4,west-northwest,4.9,No
2012/12/10,09:10,1.1,0.7,1.1,1.0,1.0,0.5,0.4,west-northwest,4.0,No
2012/12/10,09:20,1.1,0.7,1.1,1.0,1.0,0.5,0.4,west-northwest,6.4,No
2012/12/10,09:30,1.1,0.7,1.1,1.0,1.0,0.5,0.4,west-northwest,9.5,No
2012/12/10,09:40,1.1,0.7,1.1,1.0,1.0,0.5,0.4,west-northwest,5.9,No
2012/12/10,09:50,1.1,0.7,1.1,1.0,1.0,0.5,0.4,west-northwest,6.2,No
2012/12/10,10:00,1.1,0.7,1.1,1.0,1.0,0.5,0.4,west-northwest,7.5,No
2012/12/10,10:10,1.1,0.7,1.1,1.0,1.0,0.5,0.4,west,10.2,No
2012/12/10,10:20,1.1,0.7,1.1,1.0,1.0,0.5,0.4,west,9.8,No
2012/12/10,10:30,1.1,0.7,1.1,1.0,1.0,0.5,0.4,west,8.7,No
2012/12/10,10:40,1.1,0.7,1.1,1.0,1.0,0.5,0.4,west,5.3,No
2012/12/10,10:50,1.1,0.7,1.1,1.0,1.0,0.5,0.4,west-northwest,7.2,No
2012/12/10,11:00,1.1,0.7,1.1,1.0,1.0,0.5,0.4,west-northwest,6.1,No
2012/12/10,11:10,1.1,0.7,1.1,1.0,1.0,0.5,0.4,west,6.2,No
2012/12/10,11:20,1.1,0.7,1.1,1.0,1.0,0.5,0.4,west-southwest,9.1,No
2012/12/10,11:30,1.1,0.7,1.1,1.0,1.0,0.5,0.4,west-northwest,6.8,No
2012/12/10,11:40,1.1,0.7,1.1,1.0,1.0,0.5,0.4,northwest,6.8,No
2012/12/10,11:50,1.1,0.7,1.1,1.0,1.0,0.5,0.4,west-northwest,7.5,No
2012/12/10,12:00,1.1,0.7,1.1,1.0,1.0,0.5,0.4,west-northwest,6.1,No
2012/12/10,12:10,1.1,0.7,1.1,1.0,1.0,0.5,0.4,northwest,6.6,No
2012/12/10,12:20,1.1,0.7,1.1,1.0,1.0,0.5,0.4,west,8.8,No
2012/12/10,12:30,1.1,0.7,1.1,1.0,1.0,0.5,0.4,west-northwest,8.7,No
2012/12/10,12:40,1.1,0.7,1.1,1.0,1.0,0.5,0.4,west,9.2,No
2012/12/10,12:50,1.1,0.7,1.1,1.0,1.0,0.5,0.4,west-northwest,9.2,No
2012/12/10,13:00,1.1,0.7,1.1,1.0,1.0,0.5,0.4,west-northwest,7.6,No
2012/12/10,13:10,1.1,0.7,1.1,1.0,1.0,0.5,0.4,west-northwest,8.6,No
2012/12/10,13:20,1.1,0.7,1.1,1.0,1.0,0.5,0.4,west-northwest,9.1,No
2012/12/10,13:30,1.1,0.7,1.1,1.0,1.0,0.5,0.4,west,9.5,No
2012/12/10,13:40,1.1,0.7,1.1,1.0,1.0,0.5,0.4,west-northwest,8.5,No
2012/12/10,13:50,1.1,0.7,1.1,1.0,1.0,0.5,0.4,west-northwest,7.0,No
2012/12/10,14:00,1.1,0.7,1.1,1.0,1.0,0.5,0.4,west,11.6,No
2012/12/10,14:10,1.1,0.7,1.1,1.0,1.0,0.5,0.4,west,15.3,No
2012/12/10,14:20,1.1,0.7,1.1,1.0,1.0,0.5,0.4,west,15.3,No
2012/12/10,14:30,1.1,0.7,1.1,1.0,1.0,0.5,0.4,west-northwest,14.3,No
2012/12/10,14:40,1.1,0.7,1.1,1.0,1.0,0.5,0.4,west,18.7,No
2012/12/10,14:50,1.1,0.7,1.1,1.0,1.0,0.5,0.4,west-northwest,15.0,No
2012/12/10,15:00,1.1,0.7,1.1,1.0,1.0,0.5,0.4,west,16.0,No
2012/12/10,15:10,1.1,0.7,1.1,1.0,1.0,0.5,0.4,west-northwest,13.4,No
2012/12/10,15:20,1.1,0.7,1.1,1.0,1.0,0.5,0.4,west,12.6,No
2012/12/10,15:30,1.1,0.7,1.1,1.0,1.0,0.5,0.4,west,14.5,No
2012/12/10,15:40,1.1,0.7,1.1,1.0,1.0,0.5,0.4,west,10.5,No
2012/12/10,15:50,1.1,0.7,1.1,1.0,1.0,0.5,0.4,west,16.0,No
2012/12/10,16:00,1.1,0.7,1.1,1.0,1.0,0.5,0.4,west,14.9,No
2012/12/10,16:10,1.1,0.7,1.1,1.0,1.0,0.5,0.4,west,17.1,No
2012/12/10,16:20,1.1,0.7,1.1,1.0,1.0,0.5,0.4,west,15.7,No
2012/12/10,16:30,1.1,0.7,1.1,1.0,1.0,0.5,0.4,west,13.5,No
2012/12/10,16:40,1.1,0.8,1.1,1.0,1.0,0.5,0.4,west,14.0,No
2012/12/10,16:50,1.1,0.7,1.1,1.0,1.0,0.5,0.4,west,16.1,No
2012/12/10,17:00,1.1,0.7,1.1,1.0,1.0,0.5,0.4,west,14.8,No
2012/12/10,17:10,1.1,0.7,1.1,1.0,1.0,0.5,0.4,west,15.3,No
2012/12/10,17:20,1.1,0.7,1.1,1.0,1.0,0.5,0.4,west,15.6,No
2012/12/10,17:30,1.1,0.7,1.1,1.0,1.0,0.5,0.4,west,14.9,No
2012/12/10,17:40,1.1,0.7,1.1,1.0,1.0,0.5,0.4,west-northwest,13.5,No
2012/12/10,17:50,1.1,0.7,1.1,1.0,1.0,0.5,0.4,west,16.0,No
2012/12/10,18:00,1.1,0.7,1.1,1.0,1.0,0.5,0.4,west,14.6,No
2012/12/10,18:10,1.1,0.7,1.1,1.0,1.0,0.5,0.4,west,12.3,No
2012/12/10,18:20,1.1,0.7,1.1,1.0,1.0,0.5,0.4,west-northwest,15.4,No
2012/12/10,18:30,1.1,0.7,1.1,1.0,1.0,0.5,0.4,west,15.9,No
2012/12/10,18:40,1.1,0.7,1.1,1.0,1.0,0.5,0.4,west,17.8,No
2012/12/10,18:50,1.1,0.7,1.1,1.0,1.0,0.5,0.4,west,14.3,No
2012/12/10,19:00,1.1,0.7,1.1,1.0,1.0,0.5,0.4,west,14.7,No
2012/12/10,19:10,1.1,0.8,1.1,1.0,1.0,0.5,0.4,west,14.5,No
2012/12/10,19:20,1.1,0.8,1.1,1.0,1.0,0.5,0.4,west,13.4,No
2012/12/10,19:30,1.1,0.8,1.1,1.0,1.0,0.5,0.4,west,14.8,No
2012/12/10,19:40,1.1,0.8,1.1,1.0,1.0,0.5,0.4,west,16.8,No
2012/12/10,19:50,1.1,0.7,1.1,1.0,1.0,0.5,0.4,west,15.2,No
2012/12/10,20:00,1.1,0.7,1.1,1.0,1.0,0.5,0.4,west,16.0,No
2012/12/10,20:10,1.1,0.8,1.1,1.0,1.0,0.5,0.4,west,10.8,No
2012/12/10,20:20,1.1,0.8,1.1,1.0,1.0,0.5,0.4,west-northwest,5.3,No
2012/12/10,20:30,1.1,0.7,1.1,1.0,1.0,0.5,0.4,east-northeast,2.2,No
2012/12/10,20:40,1.1,0.7,1.1,1.0,1.0,0.5,0.4,northeast,4.5,No
2012/12/10,20:50,1.1,0.7,1.1,1.0,1.0,0.5,0.4,east-northeast,1.7,No
2012/12/10,21:00,1.1,0.8,1.1,1.0,1.0,0.5,0.4,west,1.2,No
2012/12/10,21:10,1.1,0.7,1.1,1.0,1.0,0.5,0.4,northwest,6.6,No
2012/12/10,21:20,1.1,0.7,1.1,1.0,1.0,0.5,0.4,northwest,6.4,No
2012/12/10,21:30,1.1,0.8,1.1,1.0,1.0,0.5,0.4,north,2.9,No
2012/12/10,21:40,1.1,0.7,1.1,1.0,1.0,0.5,0.4,north-northeast,3.8,No
2012/12/10,21:50,1.1,0.8,1.1,1.0,1.0,0.5,0.4,north-northeast,2.8,No
2012/12/10,22:00,1.1,0.7,1.1,1.0,1.0,0.5,0.4,north-northwest,2.5,No
2012/12/10,22:10,1.1,0.8,1.1,1.0,1.0,0.5,0.4,northwest,5.0,No
2012/12/10,22:20,1.1,0.8,1.1,1.0,1.0,0.5,0.4,west-northwest,4.3,No
2012/12/10,22:30,1.1,0.7,1.1,1.0,1.0,0.5,0.4,northwest,2.2,No
2012/12/10,22:40,1.1,0.8,1.1,1.0,1.0,0.5,0.4,west-northwest,3.7,No
2012/12/10,22:50,1.1,0.7,1.1,1.0,1.0,0.5,0.4,west-northwest,2.2,No
2012/12/10,23:00,1.1,0.7,1.1,1.0,1.0,0.5,0.4,northwest,0.9,No
2012/12/10,23:10,1.1,0.7,1.1,1.0,1.0,0.5,0.4,west-northwest,1.8,No
2012/12/10,23:20,1.1,0.7,1.1,1.0,1.0,0.5,0.4,west-northwest,3.1,No
2012/12/10,23:30,1.1,0.7,1.1,1.0,1.0,0.5,0.4,west-northwest,2.2,No
2012/12/10,23:40,1.1,0.7,1.1,1.0,1.0,0.5,0.4,northwest,1.0,No
2012/12/10,23:50,1.1,0.7,1.1,1.0,1.0,0.5,0.4,northwest,3.0,No
